THY9PG LTFM-EGLL

Flight info

Callsign THY9PG
Flight time 3h 9m
Altitude 38000
Route VADEN1E/36 VADEN DCT BAKLO DCT XANEX DCT GOGAR DCT UTEKA DCT BABIT DCT SASAL DCT RENKA DCT INBED DCT BOMBI DCT ADKUV DCT LENDO DCT SOGRI DCT DENUT L608 LOGAN
Aircraft B789/H-SDE1E2E3FGHIJ2J3J4J5M1RWXY/LB1D1

Departure

Time 2026-05-07 15:08
Airport İstanbul Airport (LTFM)

Arrival

Time 2026-05-07 18:18
Airport London Heathrow Airport (EGLL)
Time Latitude Longitude Altitude Speed Heading
2026-05-07 14:43 41.26714 28.74725 335 ft 0 kts 91°
2026-05-07 14:56 41.26714 28.74703 338 ft 4 kts 89°
2026-05-07 14:57 41.26713 28.74672 334 ft 3 kts 89°
2026-05-07 14:57 41.26717 28.74640 334 ft 5 kts 125°
2026-05-07 14:57 41.26737 28.74618 334 ft 4 kts 161°
2026-05-07 14:57 41.26761 28.74612 334 ft 4 kts 179°
2026-05-07 14:58 41.26775 28.74612 334 ft 3 kts 179°
2026-05-07 15:00 41.26773 28.74612 340 ft 1 kts 179°
2026-05-07 15:00 41.26755 28.74613 335 ft 5 kts 179°
2026-05-07 15:01 41.26700 28.74614 336 ft 11 kts 179°
2026-05-07 15:01 41.26610 28.74616 337 ft 14 kts 179°
2026-05-07 15:01 41.26580 28.74600 336 ft 3 kts 232°
2026-05-07 15:01 41.26572 28.74539 336 ft 11 kts 266°
2026-05-07 15:02 41.26580 28.74485 337 ft 5 kts 303°
2026-05-07 15:02 41.26607 28.74472 336 ft 7 kts 352°
2026-05-07 15:02 41.26699 28.74471 339 ft 19 kts 359°
2026-05-07 15:02 41.26836 28.74466 335 ft 20 kts 359°
2026-05-07 15:03 41.26932 28.74464 338 ft 6 kts 359°
2026-05-07 15:03 41.26964 28.74480 337 ft 4 kts 46°
2026-05-07 15:03 41.26971 28.74514 336 ft 4 kts 84°
2026-05-07 15:03 41.26973 28.74565 335 ft 7 kts 88°
2026-05-07 15:04 41.26974 28.74642 336 ft 10 kts 89°
2026-05-07 15:04 41.26975 28.74743 336 ft 12 kts 89°
2026-05-07 15:04 41.26977 28.74865 340 ft 14 kts 88°
2026-05-07 15:04 41.26979 28.75015 339 ft 18 kts 88°
2026-05-07 15:05 41.26982 28.75178 337 ft 18 kts 90°
2026-05-07 15:05 41.26983 28.75335 336 ft 10 kts 90°
2026-05-07 15:05 41.26951 28.75374 337 ft 6 kts 171°
2026-05-07 15:05 41.26877 28.75378 336 ft 15 kts 177°
2026-05-07 15:06 41.26756 28.75380 335 ft 18 kts 180°
2026-05-07 15:06 41.26625 28.75384 338 ft 19 kts 179°
2026-05-07 15:06 41.26498 28.75385 336 ft 15 kts 179°
2026-05-07 15:06 41.26429 28.75423 335 ft 8 kts 114°
2026-05-07 15:07 41.26424 28.75517 336 ft 11 kts 89°
2026-05-07 15:07 41.26427 28.75621 335 ft 10 kts 81°
2026-05-07 15:07 41.26476 28.75660 337 ft 9 kts
2026-05-07 15:07 41.26548 28.75661 335 ft 16 kts 360°
2026-05-07 15:08 41.26818 28.75657 338 ft 69 kts 359°
2026-05-07 15:08 41.27529 28.75642 336 ft 134 kts 359°
2026-05-07 15:08 41.28613 28.75611 631 ft 164 kts 359°
2026-05-07 15:08 41.29723 28.75843 1441 ft 173 kts 25°
2026-05-07 15:09 41.30789 28.76676 2166 ft 182 kts 32°
2026-05-07 15:09 41.31916 28.77665 2680 ft 209 kts 32°
2026-05-07 15:09 41.33237 28.78773 3173 ft 238 kts 27°
2026-05-07 15:09 41.34762 28.79908 3785 ft 264 kts 26°
2026-05-07 15:10 41.36396 28.81098 4837 ft 267 kts 26°
2026-05-07 15:10 41.38067 28.82201 5892 ft 270 kts 13°
2026-05-07 15:10 41.39921 28.82361 6920 ft 268 kts 354°
2026-05-07 15:10 41.41790 28.82170 7924 ft 271 kts 352°
2026-05-07 15:11 41.43674 28.81895 8960 ft 274 kts 352°
2026-05-07 15:11 41.45585 28.81642 9933 ft 278 kts 353°
2026-05-07 15:11 41.47561 28.81407 10511 ft 297 kts 353°
2026-05-07 15:11 41.49710 28.81148 10789 ft 324 kts 353°
2026-05-07 15:12 41.52049 28.80859 11012 ft 350 kts 353°
2026-05-07 15:12 41.54566 28.80547 11133 ft 377 kts 353°
2026-05-07 15:12 41.57233 28.80078 11396 ft 393 kts 345°
2026-05-07 15:12 41.59719 28.78612 12233 ft 392 kts 328°
2026-05-07 15:13 41.61815 28.76260 12911 ft 397 kts 312°
2026-05-07 15:13 41.63355 28.73187 13633 ft 402 kts 296°
2026-05-07 15:13 41.64422 28.69715 14268 ft 406 kts 292°
2026-05-07 15:13 41.65441 28.66168 14858 ft 411 kts 291°
2026-05-07 15:14 41.66448 28.62581 15454 ft 414 kts 289°
2026-05-07 15:14 41.66994 28.58781 16019 ft 419 kts 275°
2026-05-07 15:14 41.67083 28.54874 16642 ft 421 kts 272°
2026-05-07 15:14 41.67112 28.52273 17018 ft 424 kts 271°
2026-05-07 15:15 41.67133 28.48320 17560 ft 427 kts 271°
2026-05-07 15:15 41.67171 28.44335 18115 ft 430 kts 272°
2026-05-07 15:15 41.67225 28.40321 18609 ft 433 kts 272°
2026-05-07 15:15 41.67273 28.36277 19088 ft 436 kts 272°
2026-05-07 15:16 41.67310 28.32216 19543 ft 438 kts 272°
2026-05-07 15:16 41.67346 28.28132 20001 ft 440 kts 272°
2026-05-07 15:16 41.67386 28.24029 20447 ft 442 kts 272°
2026-05-07 15:16 41.67425 28.19906 20869 ft 445 kts 272°
2026-05-07 15:17 41.67461 28.15756 21278 ft 447 kts 272°
2026-05-07 15:17 41.67495 28.11592 21676 ft 449 kts 272°
2026-05-07 15:17 41.67600 28.07414 22023 ft 450 kts 278°
2026-05-07 15:17 41.68240 28.03325 22396 ft 449 kts 288°
2026-05-07 15:18 41.69429 27.99465 22764 ft 449 kts 298°
2026-05-07 15:18 41.71066 27.95902 23108 ft 450 kts 303°
2026-05-07 15:18 41.72763 27.92369 23442 ft 452 kts 303°
2026-05-07 15:18 41.74478 27.88834 23769 ft 454 kts 304°
2026-05-07 15:19 41.76197 27.85283 24038 ft 455 kts 303°
2026-05-07 15:19 41.77913 27.81712 24303 ft 456 kts 303°
2026-05-07 15:19 41.79632 27.78131 24553 ft 458 kts 303°
2026-05-07 15:19 41.81362 27.74534 24814 ft 459 kts 303°
2026-05-07 15:20 41.83659 27.69752 25069 ft 463 kts 303°
2026-05-07 15:20 41.84835 27.67297 25215 ft 464 kts 303°
2026-05-07 15:20 41.86580 27.63651 25472 ft 465 kts 303°
2026-05-07 15:20 41.88328 27.59996 25712 ft 466 kts 303°
2026-05-07 15:21 41.90081 27.56328 25964 ft 468 kts 303°
2026-05-07 15:21 41.91837 27.52645 26209 ft 469 kts 303°
2026-05-07 15:21 41.93596 27.48953 26448 ft 470 kts 303°
2026-05-07 15:21 41.95361 27.45245 26659 ft 473 kts 303°
2026-05-07 15:22 41.97116 27.41553 26807 ft 476 kts 302°
2026-05-07 15:22 41.98922 27.37748 27096 ft 477 kts 303°
2026-05-07 15:22 42.00673 27.34056 27455 ft 476 kts 303°
2026-05-07 15:22 42.02454 27.30294 27669 ft 478 kts 303°
2026-05-07 15:23 42.04238 27.26522 27927 ft 479 kts 303°
2026-05-07 15:23 42.06036 27.22740 28153 ft 480 kts 304°
2026-05-07 15:23 42.08109 27.19290 28370 ft 482 kts 311°
2026-05-07 15:23 42.10342 27.15917 28668 ft 482 kts 311°
2026-05-07 15:24 42.12582 27.12565 29103 ft 480 kts 311°
2026-05-07 15:24 42.14811 27.09228 29536 ft 479 kts 311°
2026-05-07 15:24 42.17026 27.05889 30002 ft 477 kts 311°
2026-05-07 15:24 42.19231 27.02557 30395 ft 475 kts 311°
2026-05-07 15:25 42.21431 26.99239 30817 ft 473 kts 311°
2026-05-07 15:25 42.23621 26.95935 31181 ft 473 kts 311°
2026-05-07 15:25 42.25814 26.92618 31541 ft 473 kts 310°
2026-05-07 15:25 42.27997 26.89311 32023 ft 470 kts 310°
2026-05-07 15:26 42.30168 26.86021 32523 ft 468 kts 310°
2026-05-07 15:26 42.32322 26.82752 33044 ft 465 kts 310°
2026-05-07 15:26 42.34463 26.79501 33670 ft 461 kts 310°
2026-05-07 15:26 42.36585 26.76273 34188 ft 458 kts 310°
2026-05-07 15:27 42.38702 26.73050 34533 ft 459 kts 309°
2026-05-07 15:27 42.40826 26.69812 34793 ft 461 kts 309°
2026-05-07 15:27 42.42952 26.66568 35180 ft 460 kts 309°
2026-05-07 15:27 42.45074 26.63327 35556 ft 460 kts 309°
2026-05-07 15:28 42.47191 26.60089 35919 ft 459 kts 309°
2026-05-07 15:28 42.49308 26.56848 36269 ft 459 kts 309°
2026-05-07 15:28 42.51419 26.53612 36628 ft 458 kts 309°
2026-05-07 15:28 42.53512 26.50352 36968 ft 457 kts 306°
2026-05-07 15:29 42.55252 26.46755 37221 ft 456 kts 297°
2026-05-07 15:29 42.56759 26.42970 37543 ft 456 kts 297°
2026-05-07 15:29 42.58261 26.39183 37841 ft 456 kts 297°
2026-05-07 15:29 42.59760 26.35379 38067 ft 458 kts 297°
2026-05-07 15:30 42.62769 26.27749 38049 ft 461 kts 297°
2026-05-07 15:30 42.65799 26.20048 38047 ft 460 kts 297°
2026-05-07 15:31 42.68792 26.12416 38051 ft 461 kts 297°
2026-05-07 15:31 42.71798 26.04737 38053 ft 460 kts 296°
2026-05-07 15:32 42.74791 25.97065 38045 ft 458 kts 296°
2026-05-07 15:32 42.77778 25.89391 38039 ft 460 kts 296°
2026-05-07 15:33 42.80766 25.81693 38042 ft 460 kts 296°
2026-05-07 15:33 42.83753 25.73977 38038 ft 461 kts 296°
2026-05-07 15:34 42.86736 25.66249 38043 ft 461 kts 296°
2026-05-07 15:34 42.89714 25.58514 38036 ft 461 kts 296°
2026-05-07 15:35 42.92691 25.50762 38031 ft 461 kts 296°
2026-05-07 15:35 42.95657 25.43014 38038 ft 460 kts 296°
2026-05-07 15:36 42.98619 25.35259 38040 ft 461 kts 296°
2026-05-07 15:36 43.01574 25.27500 38053 ft 460 kts 296°
2026-05-07 15:37 43.04521 25.19740 38053 ft 460 kts 296°
2026-05-07 15:37 43.07459 25.11982 38049 ft 459 kts 296°
2026-05-07 15:38 43.10397 25.04207 38054 ft 462 kts 295°
2026-05-07 15:38 43.13163 24.96280 38069 ft 460 kts 287°
2026-05-07 15:39 43.15258 24.87994 38062 ft 461 kts 287°
2026-05-07 15:39 43.17338 24.79692 38062 ft 461 kts 287°
2026-05-07 15:40 43.19422 24.71378 38064 ft 462 kts 287°
2026-05-07 15:40 43.21502 24.63034 38065 ft 463 kts 287°
2026-05-07 15:41 43.23576 24.54688 38061 ft 463 kts 287°
2026-05-07 15:41 43.25647 24.46327 38063 ft 463 kts 287°
2026-05-07 15:42 43.27697 24.38020 38058 ft 462 kts 287°
2026-05-07 15:42 43.29745 24.29687 38050 ft 460 kts 287°
2026-05-07 15:43 43.31785 24.21358 38051 ft 461 kts 287°
2026-05-07 15:43 43.33822 24.13012 38054 ft 461 kts 286°
2026-05-07 15:44 43.35855 24.04654 38061 ft 461 kts 286°
2026-05-07 15:44 43.37876 23.96313 38058 ft 460 kts 286°
2026-05-07 15:45 43.40281 23.88173 38054 ft 462 kts 293°
2026-05-07 15:45 43.43076 23.80187 38066 ft 464 kts 293°
2026-05-07 15:46 43.47265 23.68218 38065 ft 462 kts 293°
2026-05-07 15:47 43.50039 23.60255 38063 ft 461 kts 293°
2026-05-07 15:47 43.52807 23.52289 38057 ft 462 kts 293°
2026-05-07 15:48 43.55552 23.44362 38067 ft 463 kts 293°
2026-05-07 15:48 43.58354 23.36246 38063 ft 476 kts 293°
2026-05-07 15:49 43.61239 23.27871 38074 ft 489 kts 293°
2026-05-07 15:49 43.64160 23.19365 38066 ft 491 kts 292°
2026-05-07 15:50 43.67072 23.10853 38061 ft 490 kts 292°
2026-05-07 15:50 43.69979 23.02333 38070 ft 490 kts 292°
2026-05-07 15:51 43.72875 22.93816 38065 ft 489 kts 292°
2026-05-07 15:51 43.75762 22.85303 38060 ft 488 kts 292°
2026-05-07 15:52 43.78639 22.76787 38062 ft 489 kts 292°
2026-05-07 15:52 43.81510 22.68264 38061 ft 489 kts 292°
2026-05-07 15:53 43.84374 22.59733 38061 ft 488 kts 292°
2026-05-07 15:53 43.87242 22.51164 38061 ft 491 kts 292°
2026-05-07 15:54 43.90112 22.42573 38062 ft 491 kts 293°
2026-05-07 15:54 43.94003 22.34735 38062 ft 498 kts 307°
2026-05-07 15:55 43.98470 22.27494 38063 ft 498 kts 307°
2026-05-07 15:55 44.02981 22.20177 38068 ft 499 kts 307°
2026-05-07 15:56 44.07455 22.12895 38069 ft 499 kts 307°
2026-05-07 15:56 44.11956 22.05551 38055 ft 498 kts 307°
2026-05-07 15:57 44.16450 21.98197 38064 ft 499 kts 307°
2026-05-07 15:57 44.20940 21.90835 38062 ft 499 kts 307°
2026-05-07 15:58 44.25426 21.83457 38062 ft 498 kts 307°
2026-05-07 15:58 44.29903 21.76076 38073 ft 498 kts 307°
2026-05-07 15:59 44.34365 21.68702 38057 ft 497 kts 307°
2026-05-07 15:59 44.38821 21.61316 38057 ft 497 kts 307°
2026-05-07 16:00 44.43274 21.53919 38048 ft 497 kts 306°
2026-05-07 16:00 44.47720 21.46514 38029 ft 495 kts 306°
2026-05-07 16:01 44.52144 21.39123 38035 ft 495 kts 306°
2026-05-07 16:01 44.56577 21.31699 38032 ft 498 kts 306°
2026-05-07 16:02 44.61018 21.24246 38027 ft 498 kts 306°
2026-05-07 16:02 44.64696 21.18056 38033 ft 495 kts 306°
2026-05-07 16:03 44.69108 21.10612 38028 ft 495 kts 306°
2026-05-07 16:03 44.74227 21.01953 38022 ft 495 kts 306°
2026-05-07 16:04 44.77911 20.95703 38021 ft 495 kts 306°
2026-05-07 16:04 44.82303 20.88236 38022 ft 494 kts 306°
2026-05-07 16:05 44.86680 20.80773 38018 ft 494 kts 306°
2026-05-07 16:05 44.91056 20.73294 38015 ft 494 kts 306°
2026-05-07 16:06 44.95427 20.65803 38019 ft 494 kts 306°
2026-05-07 16:06 44.99784 20.58318 38009 ft 493 kts 306°
2026-05-07 16:07 45.04124 20.50840 38018 ft 492 kts 306°
2026-05-07 16:07 45.08428 20.43405 38016 ft 492 kts 306°
2026-05-07 16:08 45.12763 20.35898 38032 ft 493 kts 305°
2026-05-07 16:08 45.17098 20.28370 38014 ft 493 kts 305°
2026-05-07 16:09 45.21424 20.20837 38016 ft 492 kts 305°
2026-05-07 16:09 45.25744 20.13296 38012 ft 492 kts 305°
2026-05-07 16:10 45.30055 20.05750 38009 ft 492 kts 305°
2026-05-07 16:10 45.34366 19.98181 38012 ft 493 kts 305°
2026-05-07 16:11 45.38679 19.90592 38017 ft 493 kts 305°
2026-05-07 16:11 45.42984 19.82994 38016 ft 493 kts 305°
2026-05-07 16:12 45.47295 19.75368 38009 ft 494 kts 304°
2026-05-07 16:12 45.51601 19.67726 38006 ft 494 kts 304°
2026-05-07 16:13 45.55900 19.60078 38002 ft 494 kts 304°
2026-05-07 16:13 45.60195 19.52417 38003 ft 494 kts 304°
2026-05-07 16:14 45.64485 19.44744 37998 ft 494 kts 304°
2026-05-07 16:14 45.68768 19.37061 38004 ft 494 kts 304°
2026-05-07 16:15 45.73045 19.29368 38003 ft 494 kts 304°
2026-05-07 16:15 45.77330 19.21639 38022 ft 496 kts 304°
2026-05-07 16:16 45.81621 19.13881 38013 ft 497 kts 304°
2026-05-07 16:16 45.85908 19.06106 38017 ft 497 kts 304°
2026-05-07 16:17 45.90162 18.98370 38016 ft 497 kts 303°
2026-05-07 16:17 45.94492 18.90628 38019 ft 498 kts 305°
2026-05-07 16:18 45.98902 18.82903 38013 ft 501 kts 304°
2026-05-07 16:18 46.03340 18.75183 38014 ft 501 kts 305°
2026-05-07 16:19 46.07768 18.67430 38012 ft 501 kts 304°
2026-05-07 16:19 46.12195 18.59663 38045 ft 501 kts 305°
2026-05-07 16:20 46.16605 18.51907 38013 ft 500 kts 304°
2026-05-07 16:20 46.21007 18.44138 38011 ft 500 kts 304°
2026-05-07 16:21 46.25406 18.36358 38013 ft 500 kts 304°
2026-05-07 16:21 46.29800 18.28562 38023 ft 500 kts 304°
2026-05-07 16:22 46.34186 18.20759 38005 ft 501 kts 304°
2026-05-07 16:22 46.38578 18.12924 38002 ft 501 kts 304°
2026-05-07 16:23 46.42960 18.05082 37997 ft 501 kts 304°
2026-05-07 16:23 46.47338 17.97228 38016 ft 501 kts 304°
2026-05-07 16:24 46.51715 17.89352 37993 ft 501 kts 304°
2026-05-07 16:24 46.56080 17.81475 37990 ft 501 kts 304°
2026-05-07 16:25 46.60445 17.73577 37993 ft 501 kts 304°
2026-05-07 16:25 46.64763 17.65735 37986 ft 503 kts 303°
2026-05-07 16:26 46.69112 17.57826 37982 ft 504 kts 304°
2026-05-07 16:26 46.73481 17.49854 37981 ft 503 kts 303°
2026-05-07 16:27 46.77842 17.41867 37976 ft 503 kts 303°
2026-05-07 16:27 46.82200 17.33867 37976 ft 505 kts 304°
2026-05-07 16:28 46.86569 17.25824 37973 ft 505 kts 304°
2026-05-07 16:28 46.90932 17.17768 37973 ft 505 kts 303°
2026-05-07 16:29 46.95291 17.09693 37960 ft 508 kts 303°
2026-05-07 16:29 46.99669 17.01565 37973 ft 508 kts 303°
2026-05-07 16:30 47.04027 16.93446 37953 ft 507 kts 303°
2026-05-07 16:30 47.08380 16.85312 37958 ft 507 kts 303°
2026-05-07 16:31 47.12730 16.77160 37952 ft 507 kts 303°
2026-05-07 16:31 47.17071 16.69002 37943 ft 507 kts 303°
2026-05-07 16:32 47.21404 16.60833 37940 ft 507 kts 303°
2026-05-07 16:32 47.25740 16.52634 37955 ft 509 kts 303°
2026-05-07 16:33 47.29939 16.44283 37955 ft 506 kts 300°
2026-05-07 16:33 47.33814 16.35817 37944 ft 497 kts 299°
2026-05-07 16:33 47.35748 16.31665 37936 ft 484 kts 300°
2026-05-07 16:34 47.37631 16.27609 37947 ft 476 kts 299°
2026-05-07 16:34 47.41306 16.19527 37967 ft 474 kts 299°
2026-05-07 16:35 47.44985 16.11498 37959 ft 476 kts 299°
2026-05-07 16:35 47.48672 16.03391 38003 ft 475 kts 299°
2026-05-07 16:36 47.52344 15.95310 37974 ft 473 kts 299°
2026-05-07 16:36 47.56008 15.87208 37993 ft 475 kts 299°
2026-05-07 16:37 47.59682 15.79078 37993 ft 474 kts 299°
2026-05-07 16:37 47.63347 15.70929 37996 ft 475 kts 299°
2026-05-07 16:38 47.67013 15.62761 37990 ft 476 kts 299°
2026-05-07 16:38 47.70674 15.54579 38001 ft 476 kts 299°
2026-05-07 16:39 47.74325 15.46393 38000 ft 475 kts 299°
2026-05-07 16:39 47.77965 15.38207 38001 ft 475 kts 299°
2026-05-07 16:40 47.81600 15.30008 37998 ft 475 kts 299°
2026-05-07 16:40 47.85232 15.21793 37998 ft 475 kts 299°
2026-05-07 16:41 47.88856 15.13568 38000 ft 475 kts 299°
2026-05-07 16:41 47.92426 15.05443 37996 ft 475 kts 299°
2026-05-07 16:42 47.96086 14.97088 37992 ft 476 kts 299°
2026-05-07 16:42 47.99718 14.88770 37993 ft 479 kts 299°
2026-05-07 16:43 48.03349 14.80431 37994 ft 479 kts 299°
2026-05-07 16:43 48.06964 14.72104 37998 ft 476 kts 299°
2026-05-07 16:44 48.10535 14.63850 37997 ft 476 kts 299°
2026-05-07 16:44 48.14118 14.55545 38013 ft 475 kts 299°
2026-05-07 16:45 48.17699 14.47218 38018 ft 477 kts 299°
2026-05-07 16:45 48.21293 14.38836 38028 ft 478 kts 299°
2026-05-07 16:46 48.24885 14.30432 38031 ft 479 kts 299°
2026-05-07 16:46 48.28472 14.22013 38014 ft 478 kts 299°
2026-05-07 16:47 48.32048 14.13596 38012 ft 478 kts 299°
2026-05-07 16:47 48.35612 14.05178 37998 ft 477 kts 299°
2026-05-07 16:48 48.39172 13.96744 37995 ft 477 kts 299°
2026-05-07 16:48 48.42722 13.88308 37996 ft 477 kts 299°
2026-05-07 16:49 48.46268 13.79856 38004 ft 477 kts 299°
2026-05-07 16:49 48.49807 13.71391 38020 ft 478 kts 299°
2026-05-07 16:50 48.53352 13.62889 38018 ft 479 kts 299°
2026-05-07 16:50 48.56895 13.54361 38020 ft 479 kts 299°
2026-05-07 16:51 48.59600 13.47116 38022 ft 475 kts 294°
2026-05-07 16:51 48.62549 13.38168 38024 ft 476 kts 294°
2026-05-07 16:52 48.65479 13.29200 38026 ft 476 kts 294°
2026-05-07 16:52 48.68406 13.20226 38026 ft 476 kts 294°
2026-05-07 16:53 48.71328 13.11232 38025 ft 476 kts 294°
2026-05-07 16:53 48.74234 13.02259 38021 ft 473 kts 294°
2026-05-07 16:54 48.77121 12.93305 38020 ft 473 kts 294°
2026-05-07 16:54 48.80008 12.84327 38023 ft 474 kts 294°
2026-05-07 16:55 48.82892 12.75319 38026 ft 476 kts 294°
2026-05-07 16:55 48.85783 12.66264 38035 ft 477 kts 294°
2026-05-07 16:56 48.88667 12.57196 38035 ft 477 kts 293°
2026-05-07 16:56 48.92976 12.43581 38036 ft 476 kts 293°
2026-05-07 16:57 48.95835 12.34509 38041 ft 476 kts 293°
2026-05-07 16:57 48.98683 12.25439 38035 ft 475 kts 293°
2026-05-07 16:58 49.01521 12.16367 38041 ft 474 kts 293°
2026-05-07 16:58 49.04347 12.07302 38040 ft 473 kts 293°
2026-05-07 16:59 49.07165 11.98228 38033 ft 474 kts 293°
2026-05-07 16:59 49.09985 11.89115 38046 ft 475 kts 293°
2026-05-07 17:00 49.12800 11.79984 38048 ft 475 kts 293°
2026-05-07 17:00 49.15605 11.70851 38046 ft 476 kts 293°
2026-05-07 17:01 49.18416 11.61664 38043 ft 477 kts 293°
2026-05-07 17:01 49.21183 11.52589 38052 ft 477 kts 293°
2026-05-07 17:02 49.23958 11.43453 38036 ft 476 kts 293°
2026-05-07 17:02 49.26741 11.34258 38037 ft 476 kts 293°
2026-05-07 17:03 49.29516 11.25055 38038 ft 476 kts 293°
2026-05-07 17:03 49.32283 11.15840 38048 ft 476 kts 293°
2026-05-07 17:04 49.35040 11.06627 38051 ft 475 kts 293°
2026-05-07 17:04 49.37789 10.97406 38050 ft 475 kts 292°
2026-05-07 17:05 49.40691 10.88290 38052 ft 475 kts 294°
2026-05-07 17:05 49.43612 10.79180 38057 ft 476 kts 295°
2026-05-07 17:06 49.46574 10.70090 38067 ft 476 kts 295°
2026-05-07 17:06 49.49496 10.60994 38059 ft 477 kts 295°
2026-05-07 17:07 49.52447 10.51824 38060 ft 478 kts 295°
2026-05-07 17:07 49.55378 10.42660 38057 ft 476 kts 294°
2026-05-07 17:08 49.58292 10.33525 38058 ft 474 kts 294°
2026-05-07 17:08 49.61191 10.24402 38055 ft 474 kts 294°
2026-05-07 17:09 49.64088 10.15250 38056 ft 475 kts 294°
2026-05-07 17:09 49.66986 10.06062 38059 ft 477 kts 294°
2026-05-07 17:10 49.69881 9.96850 38052 ft 476 kts 294°
2026-05-07 17:10 49.72760 9.87654 38052 ft 475 kts 294°
2026-05-07 17:11 49.75621 9.78483 38048 ft 473 kts 294°
2026-05-07 17:11 49.78470 9.69314 38045 ft 473 kts 294°
2026-05-07 17:12 49.81322 9.60104 38057 ft 475 kts 294°
2026-05-07 17:12 49.84177 9.50848 38057 ft 477 kts 294°
2026-05-07 17:13 49.87022 9.41588 38057 ft 475 kts 294°
2026-05-07 17:13 49.89836 9.32397 38058 ft 475 kts 294°
2026-05-07 17:14 49.92664 9.23125 38055 ft 475 kts 294°
2026-05-07 17:14 49.95487 9.13833 38056 ft 476 kts 294°
2026-05-07 17:15 49.98305 9.04526 38052 ft 475 kts 294°
2026-05-07 17:15 50.01101 8.95252 38043 ft 473 kts 294°
2026-05-07 17:16 50.03880 8.86000 38041 ft 472 kts 293°
2026-05-07 17:16 50.06475 8.76633 38064 ft 471 kts 289°
2026-05-07 17:17 50.08750 8.67028 38055 ft 473 kts 289°
2026-05-07 17:17 50.11022 8.57402 38051 ft 474 kts 289°
2026-05-07 17:18 50.13286 8.47754 38052 ft 474 kts 289°
2026-05-07 17:18 50.15547 8.38088 38059 ft 474 kts 289°
2026-05-07 17:19 50.17793 8.28431 38047 ft 474 kts 288°
2026-05-07 17:19 50.20029 8.18780 38053 ft 473 kts 288°
2026-05-07 17:20 50.22257 8.09122 38053 ft 473 kts 288°
2026-05-07 17:20 50.24474 7.99462 38052 ft 473 kts 288°
2026-05-07 17:21 50.26675 7.89835 38053 ft 473 kts 288°
2026-05-07 17:21 50.28877 7.80154 38053 ft 473 kts 288°
2026-05-07 17:22 50.31070 7.70471 38050 ft 471 kts 288°
2026-05-07 17:22 50.33249 7.60803 38051 ft 471 kts 288°
2026-05-07 17:23 50.35419 7.51134 38046 ft 471 kts 288°
2026-05-07 17:23 50.37582 7.41450 38047 ft 471 kts 288°
2026-05-07 17:24 50.39721 7.31828 38047 ft 471 kts 288°
2026-05-07 17:24 50.41868 7.22127 38048 ft 471 kts 288°
2026-05-07 17:25 50.44007 7.12417 38055 ft 472 kts 287°
2026-05-07 17:25 50.46144 7.02667 38059 ft 473 kts 287°
2026-05-07 17:26 50.48277 6.92894 38051 ft 473 kts 287°
2026-05-07 17:26 50.50393 6.83147 38048 ft 471 kts 287°
2026-05-07 17:27 50.52534 6.73435 38044 ft 470 kts 288°
2026-05-07 17:27 50.54689 6.63745 38039 ft 470 kts 287°
2026-05-07 17:28 50.56819 6.54024 38038 ft 470 kts 287°
2026-05-07 17:28 50.58951 6.44318 38043 ft 472 kts 287°
2026-05-07 17:29 50.61063 6.34612 38047 ft 472 kts 287°
2026-05-07 17:29 50.62979 6.24844 38068 ft 473 kts 281°
2026-05-07 17:30 50.64553 6.14577 38057 ft 490 kts 282°
2026-05-07 17:30 50.66150 6.03956 38061 ft 505 kts 282°
2026-05-07 17:31 50.67769 5.93172 38053 ft 506 kts 282°
2026-05-07 17:31 50.69378 5.82368 38058 ft 506 kts 282°
2026-05-07 17:32 50.70973 5.71571 38061 ft 506 kts 282°
2026-05-07 17:32 50.72295 5.62580 38060 ft 506 kts 281°
2026-05-07 17:33 50.74140 5.49931 38082 ft 506 kts 281°
2026-05-07 17:33 50.75708 5.39101 38077 ft 507 kts 281°
2026-05-07 17:34 50.77269 5.28244 38078 ft 507 kts 281°
2026-05-07 17:34 50.78819 5.17381 38073 ft 507 kts 281°
2026-05-07 17:35 50.80393 5.06532 38074 ft 507 kts 285°
2026-05-07 17:35 50.83249 4.96305 38071 ft 510 kts 295°
2026-05-07 17:36 50.86373 4.86458 38075 ft 510 kts 295°
2026-05-07 17:36 50.89542 4.76416 38080 ft 510 kts 295°
2026-05-07 17:37 50.92704 4.66354 38079 ft 510 kts 295°
2026-05-07 17:37 50.95857 4.56284 38081 ft 510 kts 294°
2026-05-07 17:38 50.98998 4.46204 38082 ft 510 kts 294°
2026-05-07 17:38 51.02136 4.36096 38081 ft 510 kts 294°
2026-05-07 17:39 51.05263 4.25981 38079 ft 510 kts 294°
2026-05-07 17:39 51.08380 4.15859 38075 ft 510 kts 294°
2026-05-07 17:40 51.10965 4.07431 38075 ft 510 kts 294°
2026-05-07 17:40 51.14063 3.97289 38072 ft 510 kts 294°
2026-05-07 17:41 51.17155 3.87127 38070 ft 510 kts 294°
2026-05-07 17:41 51.20235 3.76963 38066 ft 509 kts 294°
2026-05-07 17:42 51.23310 3.66781 38064 ft 509 kts 295°
2026-05-07 17:42 51.26874 3.56998 38066 ft 510 kts 298°
2026-05-07 17:43 51.30490 3.47222 38069 ft 512 kts 298°
2026-05-07 17:43 51.34104 3.37420 38074 ft 511 kts 297°
2026-05-07 17:44 51.36853 3.26987 38077 ft 509 kts 289°
2026-05-07 17:44 51.39344 3.16378 38081 ft 509 kts 289°
2026-05-07 17:45 51.41859 3.05774 38084 ft 509 kts 289°
2026-05-07 17:45 51.44326 2.95237 38082 ft 509 kts 289°
2026-05-07 17:46 51.46637 2.85362 38070 ft 509 kts 289°
2026-05-07 17:46 51.49107 2.74733 38072 ft 508 kts 289°
2026-05-07 17:47 51.51569 2.64095 38075 ft 508 kts 289°
2026-05-07 17:47 51.54020 2.53449 38075 ft 508 kts 288°
2026-05-07 17:48 51.56464 2.42781 38077 ft 509 kts 288°
2026-05-07 17:48 51.57687 2.37435 37706 ft 511 kts 288°
2026-05-07 17:48 51.58911 2.32059 36922 ft 511 kts 288°
2026-05-07 17:49 51.60129 2.26699 36193 ft 510 kts 288°
2026-05-07 17:49 51.61342 2.21346 35438 ft 508 kts 288°
2026-05-07 17:49 51.62549 2.16009 34652 ft 507 kts 288°
2026-05-07 17:49 51.63748 2.10692 33780 ft 506 kts 288°
2026-05-07 17:50 51.64945 2.05368 32954 ft 506 kts 288°
2026-05-07 17:50 51.66141 2.00033 32069 ft 504 kts 288°
2026-05-07 17:50 51.67318 1.94773 31158 ft 495 kts 288°
2026-05-07 17:50 51.68474 1.89597 30236 ft 488 kts 288°
2026-05-07 17:51 51.69612 1.84480 29255 ft 480 kts 288°
2026-05-07 17:51 51.70727 1.79456 28322 ft 472 kts 288°
2026-05-07 17:51 51.71824 1.74503 27417 ft 465 kts 288°
2026-05-07 17:51 51.72903 1.69621 26533 ft 458 kts 288°
2026-05-07 17:52 51.73894 1.64952 25681 ft 423 kts 284°
2026-05-07 17:52 51.74398 1.60456 25114 ft 396 kts 273°
2026-05-07 17:52 51.74429 1.56056 24663 ft 391 kts 264°
2026-05-07 17:52 51.74148 1.51675 23888 ft 393 kts 263°
2026-05-07 17:53 51.73876 1.47325 23261 ft 388 kts 263°
2026-05-07 17:53 51.73599 1.43000 22562 ft 385 kts 263°
2026-05-07 17:53 51.73319 1.38733 21969 ft 380 kts 263°
2026-05-07 17:53 51.73041 1.34500 21399 ft 381 kts 263°
2026-05-07 17:54 51.72761 1.30226 20824 ft 386 kts 263°
2026-05-07 17:54 51.72477 1.25919 20249 ft 387 kts 263°
2026-05-07 17:54 51.72191 1.21608 19671 ft 386 kts 263°
2026-05-07 17:54 51.71904 1.17320 19087 ft 383 kts 263°
2026-05-07 17:55 51.71618 1.13064 18505 ft 380 kts 263°
2026-05-07 17:55 51.71334 1.08855 17911 ft 376 kts 263°
2026-05-07 17:55 51.71051 1.04688 17275 ft 373 kts 263°
2026-05-07 17:55 51.70769 1.00563 16722 ft 369 kts 263°
2026-05-07 17:56 51.70487 0.96465 16176 ft 367 kts 262°
2026-05-07 17:56 51.70209 0.92417 16015 ft 358 kts 262°
2026-05-07 17:56 51.69932 0.88426 16020 ft 363 kts 262°
2026-05-07 17:56 51.69648 0.84373 15951 ft 361 kts 262°
2026-05-07 17:57 51.69368 0.80361 14981 ft 363 kts 262°
2026-05-07 17:57 51.69176 0.77636 14617 ft 360 kts 262°
2026-05-07 17:57 51.68804 0.72370 14064 ft 355 kts 261°
2026-05-07 17:57 51.68523 0.68423 13738 ft 354 kts 261°
2026-05-07 17:58 51.68242 0.64486 13403 ft 353 kts 261°
2026-05-07 17:58 51.67958 0.60558 13097 ft 354 kts 262°
2026-05-07 17:58 51.67675 0.56623 12785 ft 353 kts 262°
2026-05-07 17:58 51.67392 0.52704 12475 ft 352 kts 262°
2026-05-07 17:59 51.67107 0.48804 12164 ft 350 kts 262°
2026-05-07 17:59 51.66824 0.44925 11854 ft 348 kts 261°
2026-05-07 17:59 51.66539 0.41063 11470 ft 346 kts 261°
2026-05-07 17:59 51.66259 0.37254 11092 ft 336 kts 261°
2026-05-07 18:00 51.65988 0.33588 10701 ft 324 kts 261°
2026-05-07 18:00 51.65724 0.30045 10312 ft 313 kts 261°
2026-05-07 18:00 51.65467 0.26623 9908 ft 303 kts 261°
2026-05-07 18:00 51.65218 0.23302 9487 ft 294 kts 261°
2026-05-07 18:01 51.64974 0.20076 9060 ft 287 kts 262°
2026-05-07 18:01 51.64741 0.16967 8972 ft 273 kts 261°
2026-05-07 18:01 51.64506 0.13928 8999 ft 276 kts 261°
2026-05-07 18:01 51.64260 0.10869 9017 ft 276 kts 261°
2026-05-07 18:02 51.63765 0.04745 8688 ft 271 kts 261°
2026-05-07 18:02 51.63523 0.01745 8553 ft 270 kts 261°
2026-05-07 18:02 51.63288 -0.01249 8395 ft 271 kts 261°
2026-05-07 18:03 51.63053 -0.04069 8280 ft 279 kts 261°
2026-05-07 18:03 51.62784 -0.07144 8078 ft 277 kts 261°
2026-05-07 18:03 51.62512 -0.10201 7976 ft 274 kts 261°
2026-05-07 18:03 51.62238 -0.13239 7973 ft 275 kts 261°
2026-05-07 18:04 51.61965 -0.16283 7972 ft 275 kts 261°
2026-05-07 18:04 51.61690 -0.19332 7976 ft 275 kts 261°
2026-05-07 18:04 51.61417 -0.22378 7979 ft 275 kts 261°
2026-05-07 18:04 51.61145 -0.25424 7976 ft 275 kts 261°
2026-05-07 18:05 51.60869 -0.28494 7845 ft 275 kts 261°
2026-05-07 18:05 51.60602 -0.31461 7575 ft 264 kts 261°
2026-05-07 18:05 51.60338 -0.34328 7293 ft 255 kts 261°
2026-05-07 18:05 51.60082 -0.37098 7010 ft 247 kts 261°
2026-05-07 18:06 51.59831 -0.39799 6971 ft 239 kts 261°
2026-05-07 18:06 51.59582 -0.42458 6978 ft 240 kts 261°
2026-05-07 18:06 51.59335 -0.45114 6985 ft 240 kts 261°
2026-05-07 18:06 51.59090 -0.47740 6983 ft 241 kts 261°
2026-05-07 18:07 51.58838 -0.50430 6976 ft 241 kts 261°
2026-05-07 18:07 51.58588 -0.53091 6979 ft 241 kts 261°
2026-05-07 18:07 51.58337 -0.55754 6977 ft 241 kts 261°
2026-05-07 18:07 51.58084 -0.58414 6978 ft 241 kts 261°
2026-05-07 18:08 51.57830 -0.61072 6976 ft 240 kts 261°
2026-05-07 18:08 51.57579 -0.63727 6980 ft 241 kts 261°
2026-05-07 18:08 51.57327 -0.66376 6781 ft 243 kts 261°
2026-05-07 18:08 51.57067 -0.69085 6525 ft 245 kts 261°
2026-05-07 18:09 51.56799 -0.71777 6259 ft 241 kts 261°
2026-05-07 18:09 51.56534 -0.74399 5995 ft 235 kts 261°
2026-05-07 18:09 51.56274 -0.76965 5715 ft 231 kts 261°
2026-05-07 18:09 51.56022 -0.79454 5438 ft 227 kts 261°
2026-05-07 18:10 51.55768 -0.81969 5160 ft 223 kts 261°
2026-05-07 18:10 51.55529 -0.84343 4968 ft 214 kts 261°
2026-05-07 18:10 51.55114 -0.86592 4586 ft 211 kts 236°
2026-05-07 18:10 51.53938 -0.87848 4264 ft 205 kts 193°
2026-05-07 18:11 51.52537 -0.88045 4015 ft 200 kts 181°
2026-05-07 18:11 51.51614 -0.88083 3980 ft 190 kts 180°
2026-05-07 18:11 51.49945 -0.88133 3977 ft 181 kts 178°
2026-05-07 18:11 51.48806 -0.87347 3937 ft 182 kts 136°
2026-05-07 18:12 51.47954 -0.85804 3992 ft 187 kts 130°
2026-05-07 18:12 51.47490 -0.83906 3942 ft 185 kts 89°
2026-05-07 18:12 51.47563 -0.81934 3952 ft 173 kts 93°
2026-05-07 18:12 51.47535 -0.80043 3974 ft 168 kts 89°
2026-05-07 18:13 51.47547 -0.78159 3774 ft 168 kts 90°
2026-05-07 18:13 51.47555 -0.76298 3552 ft 166 kts 90°
2026-05-07 18:13 51.47567 -0.74449 3324 ft 166 kts 90°
2026-05-07 18:13 51.47579 -0.72600 3096 ft 166 kts 90°
2026-05-07 18:14 51.47592 -0.70757 2866 ft 165 kts 90°
2026-05-07 18:14 51.47605 -0.68916 2641 ft 165 kts 90°
2026-05-07 18:14 51.47618 -0.67070 2414 ft 165 kts 91°
2026-05-07 18:14 51.47623 -0.65229 2190 ft 165 kts 92°
2026-05-07 18:15 51.47633 -0.63389 1958 ft 165 kts 91°
2026-05-07 18:15 51.47645 -0.61543 1736 ft 167 kts 91°
2026-05-07 18:15 51.47657 -0.59717 1499 ft 158 kts 91°
2026-05-07 18:15 51.47671 -0.58049 1288 ft 143 kts 92°
2026-05-07 18:16 51.47680 -0.56457 1091 ft 140 kts 91°
2026-05-07 18:16 51.47694 -0.54923 899 ft 135 kts 92°
2026-05-07 18:16 51.47704 -0.53422 732 ft 134 kts 91°
2026-05-07 18:16 51.47736 -0.51942 527 ft 132 kts 91°
2026-05-07 18:17 51.47743 -0.50967 408 ft 132 kts 93°
2026-05-07 18:17 51.47748 -0.49022 178 ft 129 kts 92°
2026-05-07 18:17 51.47753 -0.47626 90 ft 109 kts 86°
2026-05-07 18:17 51.47757 -0.46648 98 ft 68 kts 90°
2026-05-07 18:18 51.47758 -0.46032 94 ft 44 kts 90°
2026-05-07 18:18 51.47760 -0.45753 92 ft 29 kts 89°
2026-05-07 18:18 51.47753 -0.45530 92 ft 15 kts 112°
2026-05-07 18:18 51.47687 -0.45470 92 ft 8 kts 173°
2026-05-07 18:19 51.47646 -0.45466 91 ft 3 kts 177°
2026-05-07 18:19 51.47638 -0.45466 92 ft 0 kts 177°
2026-05-07 18:19 51.47629 -0.45465 92 ft 2 kts 176°
2026-05-07 18:19 51.47608 -0.45464 92 ft 4 kts 181°
2026-05-07 18:20 51.47575 -0.45465 92 ft 6 kts 181°
2026-05-07 18:20 51.47532 -0.45457 92 ft 6 kts 160°
2026-05-07 18:20 51.47512 -0.45409 95 ft 5 kts 105°
2026-05-07 18:20 51.47509 -0.45329 95 ft 9 kts 90°
2026-05-07 18:21 51.47509 -0.45221 95 ft 11 kts 90°
2026-05-07 18:21 51.47509 -0.45096 95 ft 12 kts 88°
2026-05-07 18:21 51.47511 -0.44950 95 ft 14 kts 89°
2026-05-07 18:21 51.47511 -0.44791 95 ft 15 kts 90°
2026-05-07 18:22 51.47507 -0.44629 95 ft 12 kts 103°
2026-05-07 18:22 51.47474 -0.44569 94 ft 11 kts 155°
2026-05-07 18:22 51.47372 -0.44559 92 ft 12 kts 179°
2026-05-07 18:22 51.47279 -0.44557 92 ft 17 kts 179°
2026-05-07 18:23 51.47152 -0.44556 93 ft 19 kts 179°
2026-05-07 18:23 51.47018 -0.44555 92 ft 20 kts 180°
2026-05-07 18:23 51.46902 -0.44555 92 ft 8 kts 180°
2026-05-07 18:23 51.46871 -0.44521 95 ft 4 kts 115°
2026-05-07 18:24 51.46865 -0.44445 95 ft 5 kts 90°
2026-05-07 18:24 51.46865 -0.44417 94 ft 0 kts 90°